Location: B�hl
(48.6968°N, 8.1352°E)
Time: 07:39:00
(UTC+00:00)

Meteor 2-4 Rocket - Pass Details

Date: 08 March 2021
Orbit: 799 x 908 km, 81.2° (Epoch: 11 April)

Event Time Altitude Azimuth Distance (km) Brightness Sun altitude
Rises 17:49:46 0° 349° (NNW) 3,508 7.1 -5.4°
Reaches altitude 10° 17:52:13 10° 350° (N) 2,576 6.4 -5.8°
Maximum altitude 17:58:08 78° 78° (ENE) 929 3.8 -6.7°
Drops below altitude 10° 18:04:04 10° 165° (SSE) 2,586 6.1 -7.7°
Sets 18:06:32 0° 166° (SSE) 3,523 6.8 -8.1°
